Location: Gammelsbach
(49.5261°N, 8.9630°E)
Time: 05:29:06
(UTC+00:00)

ATLAS CENTAUR R/B - Pass Details

Date: 17 June 2025
Orbit: 373 x 497 km, 64.6° (Epoch: 12 July)

Event Time Altitude Azimuth Distance (km) Brightness Sun altitude
Rises 20:56:50 0° 306° (NW) 2,606 6.3 -10.0°
Reaches altitude 10° 20:59:41 10° 284° (WNW) 1,706 4.6 -10.2°
Maximum altitude 21:02:00 16° 247° (WSW) 1,377 3.5 -10.4°
Drops below altitude 10° 21:04:16 10° 209° (SSW) 1,670 3.5 -10.6°
Enters shadow 21:05:30 - 197° (SSW) 2,011 3.8 -10.7°
